Horyu-4
1 41340U 16012D 16329.22739083 .00000778 00000-0 53729-4 0 9999
2 41340 31.0063 332.0516 0014327 203.3374 156.6611 15.00327129 42200
OUFTI-1
1 41458U 16025C 16329.54844183 .00003014 00000-0 16762-3 0 9997
2 41458 98.2046 349.2904 0177305 252.7859 105.3890 15.02164750 31848
e-st@r-II
1 41459U 16025D 16328.88675845 .00002263 00000-0 12735-3 0 9992
2 41459 098.2029 348.5700 0177667 255.1837 102.9649 15.02066276031748
AAUSAT4
1 41460U 16025E 16329.84609138 .00002626 00000-0 14906-3 0 9998
2 41460 98.2009 349.6384 0169358 250.7901 107.4937 15.02627124 31890
MinXSS
1 41474U 98067HU 16329.58626635 .00054058 00000-0 46638-3 0 9994
2 41474 51.6429 328.8862 0004295 42.8345 317.2986 15.68694663 30005
CADRE
1 41475U 98067HV 16329.80380975 .00213138 00000-0 94970-3 0 9992
2 41475 51.6343 321.9816 0007311 63.8806 296.2949 15.83103083 30116
NODES 1
1 41477U 98067HX 16329.39109877 .00031206 00000-0 31976-3 0 9999
2 41477 51.6380 332.0422 0003632 31.7400 328.3814 15.64678535 29856
NODES 2
1 41478U 98067HY 16329.39828442 .00031223 00000-0 32141-3 0 9990
2 41478 51.6378 332.0883 0003568 32.0540 328.0672 15.64561778 29851
LO-87
1 41557U 16033B 16329.83867761 .00002721 00000-0 10775-3 0 9997
2 41557 97.4843 43.2612 0014905 14.5700 345.5965 15.26211785 27254
NuSat2
1 41558U 16033C 16329.78929612 .00002683 00000-0 10674-3 0 9991
2 41558 97.4869 43.2316 0014328 13.8025 346.3602 15.26079846 27241
Lapan A3
1 41603U 16040E 16330.00677514 .00000258 00000-0 15501-4 0 9999
2 41603 97.4917 28.0887 0015228 68.1498 52.3570 15.19204371 23651
Swayam
1 41607U 16040J 16329.17293822 .00002376 00000-0 11374-3 0 9991
2 41607 97.4904 27.2673 0016270 74.8301 285.4731 15.19842499 23455
Pratham
1 41783U 16059A 16329.15944782 .00000079 00000-0 24921-4 0 9993
2 41783 98.1976 26.3331 0034950 83.9083 276.6099 14.62782405 8630
OBJECT B
1 41784U 16059B 16329.82900136 .00000224 00000-0 52636-4 0 9999
2 41784 98.1976 27.0315 0033341 81.7766 278.7215 14.63145311 8697
OBJECT C
1 41785U 16059C 16329.75732575 .00000014 00000-0 12226-4 0 9990
2 41785 98.1963 26.9658 0032778 81.1320 279.3586 14.63213301 8687
OBJECT D
1 41786U 16059D 16329.76108245 .00000067 00000-0 20952-4 0 9996
2 41786 98.2243 27.4475 0001114 96.8088 263.3233 14.66306963 8702
OBJECT E
1 41787U 16059E 16329.81577509 .00000122 00000-0 32767-4 0 9995
2 41787 98.1977 27.0486 0031702 80.5175 279.9603 14.63464348 8698
OBJECT F
1 41788U 16059F 16329.74015944 .00000108 00000-0 29972-4 0 9996
2 41788 98.1957 26.9861 0030880 84.1266 276.3422 14.63643852 8687
AlSat 1N
1 41789U 16059G 16329.86330406 .00000150 00000-0 37821-4 0 9992
2 41789 98.1968 27.1432 0029801 77.1857 283.2659 14.63979232 8713
ScatSat
1 41790U 16059H 16329.74307595 .00000031 00000-0 18775-4 0 9999
2 41790 98.0964 22.1077 0012150 60.6452 299.5955 14.50109475 8637
OBJECT J
1 41791U 16059J 16329.17281246 .00000054 00000-0 20850-4 0 9993
2 41791 98.2688 26.5384 0043986 89.9197 270.7044 14.60747287 8611
OBJECT K
1 41792U 16059K 16329.17540957 .00000382 00000-0 81536-4 0 9993
2 41792 98.1983 26.4781 0029056 84.0500 276.4012 14.64108026 8608
TY-1
1 41844U 16066D 16329.52764035 -.00000070 00000-0 00000 0 0 9990
2 41844 97.4064 333.8780 0015231 231.6899 284.6307 15.21468884 2217
CAS-2T
1 41845U 16066E 16329.71768227 -.00000067 00000-0 00000 0 0 9995
2 41845 98.7825 334.4269 0367988 134.9055 228.2638 14.37656717 2114
Pegasus-1
1 41846U 16066F 16329.72667446 -.00000067 00000-0 00000 0 0 9998
2 41846 98.7866 334.4259 0373666 135.6173 227.5681 14.36779564 2113
/EX
1
0
SB KEPS @ AMSAT $ORB16322.N
2Line Orbital Elements 16322.AMSAT
HR AMSAT ORBITAL ELEMENTS FOR AMATEUR SATELLITES IN NASA FORMAT
FROM WA5QGD FORT WORTH,TX November 17, 2016
BID: ORB16322.N
DECODE 2-LINE ELSETS WITH THE FOLLOWING KEY:
1 AAAAAU 00 0 0 BBBBB.BBBBBBBB .CCCCCCCC 00000-0 00000-0 0 DDDZ
2 AAAAA EEE.EEEE FFF.FFFF GGGGGGG HHH.HHHH III.IIII JJ.JJJJJJJJKKKKKZ
KEY: A-CATALOGNUM B-EPOCHTIME C-DECAY D-ELSETNUM E-INCLINATION F-RAAN
G-ECCENTRICITY H-ARGPERIGEE I-MNANOM J-MNMOTION K-ORBITNUM Z-CHECKSUM
TO ALL RADIO AMATEURS BT
AO-07
1 07530U 74089B 16322.38116304 -.00000049 00000-0 -30659-4 0 9995
2 07530 101.5983 289.5258 0012296 14.5934 140.8428 12.53624127922316
FO-29
1 24278U 96046B 16322.16380805 -.00000039 00000-0 -48889-5 0 9999
2 24278 98.5831 227.3469 0350642 166.3679 194.7235 13.53071497 203
RS-22
1 27939U 03042A 16322.88085400 .00000182 00000-0 41113-4 0 9991
2 27939 97.9097 108.8404 0013233 171.4207 307.0504 14.66487608702347
AO-73
1 39444U 13066AE 16322.71617220 .00000453 00000-0 63200-4 0 9997
2 39444 97.6619 9.6634 0057536 238.0959 121.4649 14.81253972160303
EO-79
1 40025U 14033R 16322.70401324 .00000514 00000-0 61769-4 0 9990
2 40025 97.9194 228.0389 0011283 282.4052 77.5901 14.88215781131034
XW-2A
1 40903U 15049E 16322.82099830 .00002649 00000-0 73998-4 0 9999
2 40903 97.4382 339.8880 0013983 309.4362 50.5644 15.37556741 65156
XW-2C
1 40906U 15049H 16322.78796991 .00001048 00000-0 61086-4 0 9996
2 40906 97.4543 326.6088 0014287 222.1368 137.8766 15.14065957 64249
LILACSAT-2
1 40908U 15049K 16322.78172164 .00000596 00000-0 37504-4 0 9993
2 40908 97.4611 326.3714 0015259 216.6935 143.3252 15.12832962 64202
UO-11
1 14781U 84021B 16322.69025240 .00000134 00000-0 22914-4 0 9998
2 14781 97.7294 9.8288 0008908 163.2704 196.8806 14.82826949759006
LO-19
1 20442U 90005G 16321.85808910 .00000038 00000-0 30049-4 0 9999
2 20442 098.5559 254.7481 0012795 057.8702 302.3721 14.32838753401152
